Stündliche Wetter Abay (Syrdarinskiy rayon)

Heute, 27 Februar, Samstag

Zeit Temperatur Niederschläge Wind Luftdruck Luftfeuchtigkeit
00:00 -12°C° 0 mm 4 m/S 760 mmHg 60%
01:00 -12°C° 0 mm 4 m/S 759 mmHg 61%
02:00 -12°C° 0 mm 4 m/S 759 mmHg 61%
03:00 -12°C° 0 mm 4 m/S 759 mmHg 61%
04:00 -12°C° 0 mm 4 m/S 758 mmHg 61%
05:00 -12°C° 0 mm 5 m/S 758 mmHg 60%
06:00 -12°C° 0 mm 5 m/S 758 mmHg 58%
07:00 -11°C° 0 mm 6 m/S 758 mmHg 56%
08:00 -11°C° 0 mm 7 m/S 758 mmHg 53%
09:00 -8°C° 0 mm 7 m/S 758 mmHg 50%
10:00 -6°C° 0 mm 8 m/S 757 mmHg 47%
11:00 -6°C° 0 mm 8 m/S 757 mmHg 52%
12:00 -5°C° 0 mm 8 m/S 757 mmHg 56%
13:00 -5°C° 0 mm 8 m/S 757 mmHg 61%
14:00 -5°C° 0 mm 8 m/S 756 mmHg 64%
15:00 -5°C° 0 mm 8 m/S 756 mmHg 68%
16:00 -4°C° 0 mm 6 m/S 756 mmHg 67%
17:00 -5°C° 0 mm 6 m/S 756 mmHg 73%
18:00 -5°C° 0 mm 5 m/S 756 mmHg 79%
19:00 -5°C° 0 mm 4 m/S 756 mmHg 85%
20:00 -6°C° 0 mm 5 m/S 756 mmHg 85%
21:00 -5°C° 0 mm 5 m/S 756 mmHg 86%
22:00 -5°C° 0 mm 5 m/S 756 mmHg 87%
23:00 -5°C° 0 mm 6 m/S 755 mmHg 88%

Morgen, 28 Februar, Sonntag

Zeit Temperatur Niederschläge Wind Luftdruck Luftfeuchtigkeit
00:00 -5°C° 0 mm 6 m/S 755 mmHg 90%
01:00 -5°C° 0 mm 6 m/S 755 mmHg 91%
02:00 -5°C° 0 mm 6 m/S 755 mmHg 92%
03:00 -5°C° 0 mm 6 m/S 754 mmHg 92%
04:00 -5°C° 0 mm 6 m/S 754 mmHg 92%
05:00 -4°C° 0 mm 6 m/S 754 mmHg 92%
06:00 -4°C° 0 mm 7 m/S 754 mmHg 91%
07:00 -3°C° 0 mm 7 m/S 754 mmHg 91%
08:00 -2°C° 0.1 mm 7 m/S 754 mmHg 86%
09:00 -2°C° 0.1 mm 8 m/S 753 mmHg 82%
10:00 -1°C° 0.1 mm 8 m/S 753 mmHg 77%
11:00 -1°C° 0 mm 7 m/S 753 mmHg 75%
12:00 0°C° 0 mm 7 m/S 753 mmHg 73%
13:00 0°C° 0 mm 7 m/S 753 mmHg 71%
14:00 +1°C° 0 mm 6 m/S 753 mmHg 70%
15:00 +1°C° 0 mm 6 m/S 753 mmHg 68%
16:00 +1°C° 0 mm 5 m/S 753 mmHg 67%
17:00 0°C° 0 mm 5 m/S 753 mmHg 66%
18:00 0°C° 0 mm 4 m/S 753 mmHg 66%
19:00 -1°C° 0 mm 4 m/S 753 mmHg 66%
20:00 -1°C° 0 mm 4 m/S 753 mmHg 66%
21:00 -1°C° 0 mm 4 m/S 753 mmHg 65%
22:00 -2°C° 0 mm 4 m/S 753 mmHg 64%
23:00 -2°C° 0 mm 4 m/S 753 mmHg 62%

übermorgen, 1 März, Montag

Zeit Temperatur Niederschläge Wind Luftdruck Luftfeuchtigkeit
00:00 -2°C° 0 mm 4 m/S 753 mmHg 59%
01:00 -2°C° 0 mm 4 m/S 752 mmHg 57%
02:00 -2°C° 0 mm 4 m/S 752 mmHg 55%
03:00 -2°C° 0 mm 4 m/S 752 mmHg 53%
04:00 -2°C° 0 mm 4 m/S 752 mmHg 51%
05:00 -2°C° 0 mm 4 m/S 752 mmHg 51%
06:00 -2°C° 0 mm 4 m/S 752 mmHg 51%
07:00 -2°C° 0 mm 4 m/S 752 mmHg 51%
08:00 -1°C° 0 mm 4 m/S 752 mmHg 49%
09:00 +2°C° 0 mm 3 m/S 752 mmHg 48%
10:00 +3°C° 0 mm 3 m/S 753 mmHg 46%
11:00 +4°C° 0 mm 3 m/S 753 mmHg 45%
12:00 +5°C° 0 mm 3 m/S 753 mmHg 43%
13:00 +8°C° 0 mm 3 m/S 753 mmHg 41%
14:00 +7°C° 0 mm 2 m/S 752 mmHg 46%
15:00 +7°C° 0 mm 1 m/S 752 mmHg 51%
16:00 +6°C° 0 mm 1 m/S 752 mmHg 56%
17:00 +4°C° 0 mm 0 m/S 752 mmHg 59%
18:00 +2°C° 0 mm 0 m/S 752 mmHg 62%
19:00 +1°C° 0 mm 0 m/S 752 mmHg 64%
20:00 +1°C° 0 mm 0 m/S 752 mmHg 63%
21:00 +2°C° 0 mm 1 m/S 752 mmHg 61%
22:00 +2°C° 0 mm 1 m/S 752 mmHg 60%
23:00 +2°C° 0 mm 1 m/S 753 mmHg 60%

2 März, Dienstag

Zeit Temperatur Niederschläge Wind Luftdruck Luftfeuchtigkeit
00:00 +1°C° 0 mm 2 m/S 753 mmHg 61%
01:00 +1°C° 0 mm 2 m/S 753 mmHg 62%
02:00 0°C° 0 mm 3 m/S 753 mmHg 67%
03:00 -1°C° 0 mm 3 m/S 753 mmHg 73%
04:00 -2°C° 0 mm 4 m/S 753 mmHg 78%
05:00 -2°C° 0 mm 3 m/S 753 mmHg 83%
06:00 -2°C° 0 mm 3 m/S 754 mmHg 89%
07:00 -2°C° 0 mm 3 m/S 754 mmHg 95%
08:00 -2°C° 0 mm 3 m/S 755 mmHg 86%
09:00 -2°C° 0 mm 4 m/S 755 mmHg 77%
10:00 -1°C° 0 mm 4 m/S 756 mmHg 68%
11:00 0°C° 0 mm 4 m/S 756 mmHg 62%
12:00 0°C° 0 mm 5 m/S 756 mmHg 57%
13:00 +1°C° 0 mm 5 m/S 756 mmHg 51%
14:00 +1°C° 0 mm 4 m/S 756 mmHg 53%
15:00 0°C° 0 mm 4 m/S 756 mmHg 55%
16:00 0°C° 0 mm 4 m/S 756 mmHg 57%
17:00 0°C° 0 mm 3 m/S 756 mmHg 62%
18:00 -1°C° 0 mm 3 m/S 756 mmHg 67%
19:00 -2°C° 0 mm 2 m/S 757 mmHg 72%
20:00 -2°C° 0 mm 2 m/S 757 mmHg 72%
21:00 -2°C° 0 mm 2 m/S 757 mmHg 71%
22:00 -3°C° 0 mm 2 m/S 757 mmHg 71%
23:00 -3°C° 0 mm 2 m/S 757 mmHg 73%

3 März, Mittwoch

Zeit Temperatur Niederschläge Wind Luftdruck Luftfeuchtigkeit
00:00 -3°C° 0 mm 2 m/S 757 mmHg 75%
01:00 -3°C° 0 mm 2 m/S 757 mmHg 77%
02:00 -1°C° 0 mm 1 m/S 757 mmHg 77%
03:00 -1°C° 0 mm 1 m/S 756 mmHg 77%
04:00 -2°C° 0 mm 1 m/S 756 mmHg 77%
05:00 -1°C° 0 mm 1 m/S 756 mmHg 76%
06:00 -1°C° 0 mm 1 m/S 756 mmHg 74%
07:00 -1°C° 0 mm 1 m/S 756 mmHg 72%
08:00 0°C° 0 mm 1 m/S 756 mmHg 69%
09:00 -2°C° 0 mm 2 m/S 756 mmHg 65%
10:00 -1°C° 0 mm 2 m/S 756 mmHg 62%
11:00 +1°C° 0 mm 2 m/S 755 mmHg 59%
12:00 +2°C° 0 mm 2 m/S 755 mmHg 57%
13:00 +3°C° 0 mm 2 m/S 754 mmHg 54%
14:00 +3°C° 0 mm 2 m/S 754 mmHg 55%
15:00 +3°C° 0 mm 2 m/S 753 mmHg 56%
16:00 +3°C° 0 mm 2 m/S 753 mmHg 57%
17:00 +2°C° 0 mm 2 m/S 753 mmHg 60%
18:00 +2°C° 0 mm 2 m/S 752 mmHg 63%
19:00 +1°C° 0 mm 2 m/S 752 mmHg 67%
20:00 +1°C° 0 mm 2 m/S 752 mmHg 70%
21:00 +1°C° 0 mm 2 m/S 752 mmHg 73%
22:00 +1°C° 0 mm 2 m/S 752 mmHg 75%
23:00 +1°C° 0.1 mm 2 m/S 751 mmHg 79%

4 März, Donnerstag

Zeit Temperatur Niederschläge Wind Luftdruck Luftfeuchtigkeit
00:00 +1°C° 0.1 mm 2 m/S 750 mmHg 83%
01:00 0°C° 0.1 mm 3 m/S 750 mmHg 87%
02:00 0°C° 0.1 mm 3 m/S 749 mmHg 87%
03:00 -1°C° 0.1 mm 4 m/S 749 mmHg 87%
04:00 0°C° 0.1 mm 5 m/S 749 mmHg 86%
05:00 0°C° 0 mm 5 m/S 749 mmHg 89%
06:00 0°C° 0 mm 5 m/S 749 mmHg 92%
07:00 -1°C° 0 mm 6 m/S 749 mmHg 95%
08:00 +1°C° 0 mm 6 m/S 750 mmHg 92%
09:00 +1°C° 0 mm 6 m/S 750 mmHg 89%
10:00 +1°C° 0 mm 6 m/S 750 mmHg 86%
11:00 +2°C° 0 mm 7 m/S 751 mmHg 80%
12:00 +2°C° 0 mm 7 m/S 751 mmHg 74%
13:00 +2°C° 0 mm 7 m/S 751 mmHg 68%
14:00 +2°C° 0 mm 7 m/S 751 mmHg 66%
15:00 +2°C° 0 mm 7 m/S 751 mmHg 64%
16:00 +2°C° 0 mm 7 m/S 751 mmHg 62%
17:00 +1°C° 0 mm 6 m/S 752 mmHg 67%
18:00 0°C° 0 mm 5 m/S 752 mmHg 71%
19:00 0°C° 0 mm 3 m/S 752 mmHg 75%
20:00 -1°C° 0 mm 4 m/S 752 mmHg 77%
21:00 -2°C° 0 mm 4 m/S 753 mmHg 79%
22:00 -2°C° 0 mm 4 m/S 753 mmHg 81%
23:00 -2°C° 0 mm 4 m/S 753 mmHg 83%
Mehr zeigen

Wir brauchen deine Erlaubnis

Meteoprog und unser Service Anbieter werden persönliche Daten aufbewahren, so wie Cookies, Geräte Bezeichnung oder ähnliche Technologien von deinem Gerät und Prozess, so wie Persönliche Daten Inhalte und Werbungen, genauso wie social Media und den Verkehr zu analysieren.

  • Aufbewahrung und/oder Zugang zu deiner Geräte Informationen.

    Cookies, Geräte Bezeichnung oder andere Informationen, können aufbewahrt oder Zugang zu deinem Gerät erhalten, für den Grund, der oben angegeben wird.

  • Personalisierte Werbung und Inhalte, Messungen, Einblick in das Publikum und Produkt Entwicklung.

    Werbungen und Inhalte können personalisiert werden, basierend auf ein Profil. Mehr Daten können besser personalisierte Werbungen und Inhalte hinzufügen. Werbung und Inhalte können gezeigt und gemessen werden. Einblicke über das Publikum, welche die Werbung gesehen haben und den Inhalt, können abgeleitet werden. So wie Daten können genutzt werden, um es zu verbessern oder die Benutzer Erfahrung zu verbessern das System und die Software.

Wenn du “Ich stimme zu” klickst, erlaubst du uns, die Cookies zu benutzen die Geräte Bezeichnung, den Web oder ähnliche Technologien zu benutzen. Deine Settings, können in deinem Gerät bei deinem Browser geändert werden.

Für den bestimmten Zweck, berechtigten Interessen beruhen darauf, mehr als auf den Inhalt. Du kannst mehr darüber in unseren Privaten und Cookie Politik lesen.